Location: American Medical Response
(33.3472°N, 96.5511°W)
Time: 18:58:49
(UTC+00:00)

Lacrosse 5 rocket - Pass Details

Date: 06 July 2022
Orbit: 456 x 628 km, 57.0° (Epoch: 08 August)

Event Time Altitude Azimuth Distance (km) Brightness Sun altitude
Rises 02:38:32 0° 320° (NW) 2,592 6.6 -11.2°
Reaches altitude 10° 02:40:40 10° 320° (NW) 1,732 5.3 -11.6°
Maximum altitude 02:44:34 84° 233° (SW) 539 1.2 -12.2°
Enters shadow 02:47:29 19° 145° (SE) 1,343 2.7 -12.7°
